Location: Colossi of Memnon
(25.7167°N, 32.6167°E)
Time: 03:55:25
(UTC+00:00)

Cosmos 676 Rocket - Pass Details

Date: 05 March 2021
Orbit: 755 x 783 km, 74.0° (Epoch: 10 April)

Event Time Altitude Azimuth Distance (km) Brightness Sun altitude
Rises 03:22:25 0° 191° (S) 3,254 7.2 -11.3°
Reaches altitude 10° 03:24:47 10° 190° (S) 2,328 6.4 -10.7°
Maximum altitude 03:30:05 79° 104° (ESE) 797 4.2 -9.6°
Drops below altitude 10° 03:35:23 10° 18° (NNE) 2,329 6.7 -8.4°
Sets 03:37:45 0° 17° (NNE) 3,255 7.4 -7.8°
